星链-5734 (STARLINK-5734 )

导读

STARLINK-5734是美国太空探索技术公司(SpaceX)于2023年2月12日发射的星链(Starlink)卫星,属于星链星座的组网卫星,用于提供全球覆盖的天基互联网服务。该卫星配备自动避撞系统,可有效规避轨道碰撞,截至2023年7月,星链星座已累计发射数千颗卫星,多数保持正常运行,持续推进低轨互联网星座部署,为全球用户提供宽带接入服务。

基本信息
目录编号:
55612
目录名称:
STARLINK-5734
国际标识:
2023-020AV
轨道中心:
EARTH
卫星名称:
星链-5734
卫星全名:
星链-5734 (STARLINK-5734 )
卫星状态:
在轨 (已飞行1300 天)
发射日期:
2023-02-12 UTC
国别 :
美国 (US)
星等 :
--
轨道信息
数据来源 国际轨道数据
星历时间: 2026-09-04T12:31:19+0800
9小时前
查看轨道信息
半长轴: 6861.194km
偏心率: 0.0001361
轨道倾角: 43.002°
近地点辐角 253.065°
升交点赤经 66.567°
平近点角 107.005°
近地点: 482.123km
远地点: 483.991km
周期: 94.267分钟
每日圈数: 15.275776
详细信息
固有亮度:
5
最大亮度:
2.5
卫星平台:
Starlink v1.5
覆盖范围:
全球
运营商:
太空探索技术公司
运营商所在国:
美国
制造商(研发单位):
太空探索技术公司
制造商所在国:
美国
使用方式:
暂无
卫星简介
星链(Starlink)计划是由太空探索技术公司(SpaceX)提出的一个巨型低轨卫星互联网星座项目,计划在2019年至2024年间在太空搭建由约1.2万颗卫星组成的“星链”网络,其中1584颗将部署在地球上空550千米处的近地轨道,并从2020年开始工作。该卫星仍在工作。
2D轨道图
3D轨道图
轨道高度分析图
轨道倾角分析图
轨道综合分析图
查看轨道综合分析图
交会数据列表
事件ID 空间交会对象 最接近时刻(TCA) 交会距离 交会风险概率(CRP) 交会风险指数(CRI) 操作
CDM_260904-142705-561205-917021
2026-09-04T
14:27:10+0000
0.318 km
远距离
3.139827E-4 高风险 0.85
CDM_260905-003905-561205-917021
2026-09-05T
00:39:12+0000
0.791 km
远距离
3.230756E-5 中风险 0.65
CDM_260904-160105-561205-917021
2026-09-04T
16:01:20+0000
1.922 km
极远距离
1.833378E-6 低风险 0.4
CDM_260904-230505-561205-917021
2026-09-04T
23:05:02+0000
1.976 km
极远距离
1.711458E-6 低风险 0.4
CDM_260904-125305-561205-917021
2026-09-04T
12:53:01+0000
2.525 km
极远距离
1.037268E-6 低风险 0.35